Hearne, TX

1:09 AM CST on November 13, 2019 (GMT -0600)
Hearne

Weather History for KLHB - September, 2019

Change the Weather History Date:

Saturday, September 21, 2019

  Actual Average (WUND) Record (WUND)
Temperature  
Mean Temperature 84 °F -  
Max Temperature 95 °F - - (-1)
Min Temperature 74 °F - - (-1)
Cooling Degree Days 20    
Growing Degree Days 34 (Base 50)    
Moisture  
Dew Point 72 °F    
Average Humidity 70    
Maximum Humidity 94    
Minimum Humidity 44    
Precipitation  
Precipitation 0.00 in - - ()
Sea Level Pressure  
Sea Level Pressure 30.04 in    
Wind  
Wind Speed 6 mph ()    
Max Wind Speed 15 mph    
Max Gust Speed 21 mph    
Visibility 9.9 miles    
Events      
Averages and records for this station are not official NWS values.
T = Trace of Precipitation, MM = Missing Value Source: Averaged Metar Reports

Daily Weather History Graph

Daily Weather History Graph

Search for Another Location

Airport or City:

Astronomy

Sep. 21, 2019 Rise Set
Actual Time 7:14 AM CDT 7:24 PM CDT
Civil Twilight 6:49 AM CDT 7:48 PM CDT
Nautical Twilight 6:21 AM CDT 8:16 PM CDT
Astronomical Twilight 5:53 AM CDT 8:45 PM CDT
Moon No Moon Rise 1:56 PM CDT (9/21)
Length of Visible Light 12h 58m
Length of Day
12h 10m
Waning Gibbous, 54% of the Moon is Illuminated
Sep 21
Waning Gibbous
Sep 21
Last Quarter
Sep 28
New
Oct 5
First Quarter
Oct 13
Full

Hourly Weather History & Observations

Time (CDT) Temp. Heat Index Dew Point Humidity Pressure Visibility Wind Dir Wind Speed Gust Speed Precip Events Conditions
12:15 AM 77.7 °F - 73.6 °F 87% 30.06 in 10.0 mi ESE 3.5 mph - N/A   Overcast
12:35 AM 77.7 °F - 73.9 °F 88% 30.05 in 10.0 mi ESE 4.6 mph - N/A   Overcast
12:55 AM 77.5 °F - 74.1 °F 89% 30.05 in 10.0 mi SE 4.6 mph - N/A   Mostly Cloudy
1:15 AM 77.5 °F - 74.3 °F 90% 30.05 in 10.0 mi ESE 4.6 mph - N/A   Scattered Clouds
1:35 AM 77.9 °F - 74.5 °F 89% 30.05 in 10.0 mi SE 4.6 mph - N/A   Mostly Cloudy
1:55 AM 77.7 °F - 74.5 °F 90% 30.04 in 10.0 mi SE 5.8 mph - N/A   Mostly Cloudy
2:15 AM 77.9 °F - 74.7 °F 90% 30.04 in 10.0 mi SE 5.8 mph - N/A   Mostly Cloudy
2:35 AM 77.5 °F - 74.8 °F 91% 30.04 in 10.0 mi SE 6.9 mph - N/A   Overcast
2:55 AM 77.5 °F - 74.8 °F 91% 30.03 in 10.0 mi SE 5.8 mph - N/A   Overcast
3:15 AM 77.9 °F - 75.2 °F 91% 30.03 in 10.0 mi SE 4.6 mph - N/A   Overcast
3:55 AM 77.2 °F - 74.8 °F 92% 30.03 in 10.0 mi SE 4.6 mph - N/A   Scattered Clouds
4:15 AM 77.0 °F - 74.3 °F 91% 30.03 in 10.0 mi Calm Calm - N/A   Scattered Clouds
4:35 AM 76.5 °F - 74.3 °F 93% 30.04 in 10.0 mi Calm Calm - N/A   Mostly Cloudy
4:55 AM 76.1 °F - 73.9 °F 93% 30.04 in 10.0 mi Calm Calm - N/A   Scattered Clouds
5:15 AM 76.1 °F - 73.8 °F 92% 30.04 in 10.0 mi Calm Calm - N/A   Clear
5:35 AM 75.6 °F - 73.4 °F 93% 30.05 in 10.0 mi Calm Calm - N/A   Clear
5:55 AM 75.4 °F - 73.4 °F 94% 30.06 in 10.0 mi Calm Calm - N/A   Clear
6:15 AM 75.4 °F - 73.4 °F 94% 30.07 in 10.0 mi Calm Calm - N/A   Clear
6:35 AM 75.2 °F - 73.2 °F 94% 30.07 in 10.0 mi Calm Calm - N/A   Clear
6:55 AM 74.8 °F - 73.0 °F 94% 30.07 in 10.0 mi Calm Calm - N/A   Clear
7:15 AM 74.7 °F - 72.9 °F 94% 30.07 in 7.0 mi Calm Calm - N/A   Clear
7:35 AM 74.7 °F - 72.9 °F 94% 30.08 in 7.0 mi Calm Calm - N/A   Clear
7:55 AM 75.2 °F - 73.4 °F 94% 30.08 in 7.0 mi East 5.8 mph - N/A   Clear
8:15 AM 76.1 °F - 73.8 °F 92% 30.08 in 10.0 mi ESE 4.6 mph - N/A   Clear
8:35 AM 78.1 °F - 74.3 °F 88% 30.09 in 10.0 mi ESE 5.8 mph - N/A   Clear
8:55 AM 79.7 °F - 74.3 °F 83% 30.09 in 10.0 mi SE 9.2 mph - N/A   Clear
9:15 AM 80.8 °F 86.1 °F 74.3 °F 81% 30.10 in 10.0 mi ESE 9.2 mph - N/A   Scattered Clouds
9:35 AM 82.6 °F 89.1 °F 74.3 °F 76% 30.10 in 10.0 mi SE 8.1 mph - N/A   Scattered Clouds
9:55 AM 83.3 °F 90.2 °F 74.3 °F 74% 30.10 in 10.0 mi SE 6.9 mph - N/A   Mostly Cloudy
10:15 AM 83.3 °F 89.6 °F 73.6 °F 72% 30.10 in 10.0 mi SSE 12.7 mph 17.3 mph N/A   Mostly Cloudy
10:35 AM 86.0 °F 93.0 °F 73.0 °F 65% 30.10 in 10.0 mi SSE 15.0 mph 19.6 mph N/A   Mostly Cloudy
10:55 AM 87.3 °F 94.0 °F 72.5 °F 61% 30.10 in 10.0 mi SE 10.4 mph 20.7 mph N/A   Scattered Clouds
11:15 AM 87.8 °F 95.2 °F 72.9 °F 61% 30.10 in 10.0 mi SSE 12.7 mph 17.3 mph N/A   Scattered Clouds
11:35 AM 88.2 °F 95.0 °F 72.0 °F 59% 30.09 in 10.0 mi SSE 12.7 mph 18.4 mph N/A   Mostly Cloudy
11:55 AM 89.1 °F 96.0 °F 72.1 °F 57% 30.09 in 10.0 mi SE 10.4 mph 16.1 mph N/A   Scattered Clouds
12:15 PM 89.8 °F 97.0 °F 72.0 °F 56% 30.09 in 10.0 mi SE 9.2 mph - N/A   Scattered Clouds
12:35 PM 91.2 °F 97.5 °F 71.1 °F 51% 30.08 in 10.0 mi SE 11.5 mph 16.1 mph N/A   Scattered Clouds
12:55 PM 89.6 °F 95.7 °F 70.9 °F 54% 30.07 in 10.0 mi ESE 6.9 mph - N/A   Mostly Cloudy
1:15 PM 93.2 °F 98.8 °F 69.8 °F 46% 30.06 in 10.0 mi ESE 10.4 mph 16.1 mph N/A   Scattered Clouds
1:35 PM 93.0 °F 97.9 °F 68.7 °F 45% 30.05 in 10.0 mi SE 9.2 mph 19.6 mph N/A   Clear
1:55 PM 94.5 °F 100.8 °F 70.0 °F 45% 30.05 in 10.0 mi ESE 8.1 mph 16.1 mph N/A   Clear
2:15 PM 93.6 °F 99.5 °F 70.0 °F 46% 30.04 in 10.0 mi SSE 9.2 mph 18.4 mph N/A   Scattered Clouds
2:35 PM 93.9 °F 100.3 °F 70.2 °F 46% 30.03 in 10.0 mi SSE 9.2 mph - N/A   Clear
2:55 PM 94.5 °F 101.4 °F 70.5 °F 46% 30.02 in 10.0 mi SE 9.2 mph 18.4 mph N/A   Scattered Clouds
3:15 PM 93.9 °F 100.3 °F 70.0 °F 46% 30.01 in 10.0 mi SE 8.1 mph 16.1 mph N/A   Clear
3:35 PM 95.0 °F 102.5 °F 71.1 °F 46% 30.00 in 10.0 mi SE 11.5 mph 19.6 mph N/A   Scattered Clouds
3:55 PM 95.2 °F 101.7 °F 70.2 °F 44% 29.99 in 10.0 mi SE 9.2 mph - N/A   Mostly Cloudy
4:15 PM 94.3 °F 100.4 °F 69.8 °F 45% 29.99 in 10.0 mi SE 12.7 mph 17.3 mph N/A   Scattered Clouds
4:35 PM 93.2 °F 98.8 °F 69.4 °F 46% 29.98 in 10.0 mi SE 10.4 mph - N/A   Scattered Clouds
4:55 PM 92.3 °F 97.6 °F 69.6 °F 47% 29.98 in 10.0 mi SE 11.5 mph 18.4 mph N/A   Scattered Clouds
5:15 PM 91.9 °F 98.4 °F 70.7 °F 50% 29.98 in 10.0 mi SE 11.5 mph 19.6 mph N/A   Scattered Clouds
5:35 PM 91.9 °F 99.0 °F 71.4 °F 51% 29.97 in 10.0 mi SE 11.5 mph - N/A   Scattered Clouds
5:55 PM 91.2 °F 98.0 °F 71.2 °F 52% 29.98 in 10.0 mi ESE 10.4 mph 17.3 mph N/A   Mostly Cloudy
6:15 PM 89.8 °F 96.5 °F 71.4 °F 55% 29.98 in 10.0 mi ESE 10.4 mph 17.3 mph N/A   Scattered Clouds
6:35 PM 89.6 °F 96.2 °F 71.6 °F 55% 29.98 in 10.0 mi SE 8.1 mph - N/A   Scattered Clouds
6:55 PM 88.7 °F 94.8 °F 71.2 °F 56% 29.98 in 10.0 mi SE 8.1 mph - N/A   Scattered Clouds
7:15 PM 87.8 °F 93.4 °F 71.1 °F 57% 29.98 in 10.0 mi SE 8.1 mph - N/A   Mostly Cloudy
7:35 PM 87.1 °F 92.8 °F 71.1 °F 59% 29.99 in 10.0 mi SE 11.5 mph - N/A   Mostly Cloudy
7:55 PM 86.4 °F 91.4 °F 70.7 °F 59% 29.99 in 10.0 mi SE 8.1 mph - N/A   Overcast
8:15 PM 85.6 °F 90.8 °F 70.7 °F 61% 30.00 in 10.0 mi SE 8.1 mph - N/A   Mostly Cloudy
8:35 PM 84.7 °F 89.7 °F 70.7 °F 63% 30.01 in 10.0 mi SE 6.9 mph - N/A   Scattered Clouds
8:55 PM 84.4 °F 89.0 °F 70.7 °F 63% 30.01 in 10.0 mi SE 6.9 mph - N/A   Scattered Clouds
9:15 PM 83.5 °F 88.0 °F 70.7 °F 65% 30.02 in 10.0 mi SE 5.8 mph - N/A   Scattered Clouds
9:35 PM 83.3 °F 87.6 °F 70.3 °F 65% 30.03 in 10.0 mi SE 8.1 mph - N/A   Clear
9:55 PM 82.6 °F 86.6 °F 70.3 °F 66% 30.03 in 10.0 mi ESE 9.2 mph - N/A   Clear
10:15 PM 82.2 °F 86.4 °F 70.5 °F 68% 30.04 in 10.0 mi SE 8.1 mph - N/A   Clear
10:35 PM 81.5 °F 85.5 °F 70.9 °F 70% 30.03 in 10.0 mi SE 8.1 mph - N/A   Clear
10:55 PM 81.0 °F 84.7 °F 70.7 °F 71% 30.04 in 10.0 mi SE 6.9 mph - N/A   Clear
11:15 PM 80.6 °F 84.2 °F 70.7 °F 72% 30.04 in 10.0 mi SE 6.9 mph - N/A   Clear
11:35 PM 79.9 °F - 70.9 °F 74% 30.04 in 10.0 mi SE 6.9 mph - N/A   Clear
11:55 PM 79.3 °F - 71.1 °F 76% 30.04 in 10.0 mi SE 6.9 mph - N/A   Clear